Date String (YYYY-MM-DD hh:mm:ss) UTC,Instrument flags,Ambient pressure (hPa),Sample flow (lpm),Bypass flow (lpm),Sample temperature (°C),Ambient temperature (°C),ASC tube jacket temperature (°C),LED temperature (°C),Box temperature (°C),Sample RH (%),Span deviation,Mass concentration (μg/m³),Mass concentration (μg/m³),Mass concentration (μg/m³)
DateTimeUTC,F1_M11,P_M11,Q1_M11,Q2_M11,T1_M11,T2_M11,T3_M11,T4_M11,T5_M11,U1_M11,ZSPAN_M11,X0_M11,X2_M11,X1_M11
2022-11-14 09:00:00,,0825.4,4.99,0.00,22.5,21.1,00.0,31.4,24.4,11.0,0000.0,0006.66,0003.26,0003.06
2022-11-14 09:01:00,,0825.4,5.01,0.00,22.5,21.0,00.0,31.4,24.3,11.1,0000.0,0006.42,0003.25,0003.06
2022-11-14 09:02:00,,0825.4,5.01,0.00,22.5,21.0,00.0,31.4,24.3,11.0,0000.0,0005.13,0003.24,0003.06
2022-11-14 09:03:00,,0825.3,5.00,0.00,22.5,21.0,00.0,31.4,24.4,11.0,0000.0,0004.74,0003.24,0003.07
2022-11-14 09:04:00,,0825.3,4.99,0.00,22.5,21.1,00.0,31.3,24.4,11.0,0000.0,0004.80,0003.28,0003.10
2022-11-14 09:05:00,,0825.4,5.01,0.00,22.6,21.7,00.0,31.3,24.5,11.0,0000.0,0004.59,0003.29,0003.10
2022-11-14 09:06:00,,0825.4,4.99,0.00,22.7,22.4,00.0,31.3,24.7,10.9,0000.0,0004.38,0003.28,0003.09
2022-11-14 09:07:00,,0825.4,4.99,0.00,22.7,22.2,00.0,31.4,24.7,10.9,0000.0,0004.26,0003.27,0003.08
2022-11-14 09:08:00,,0825.4,5.02,0.00,22.7,22.0,00.0,31.4,24.7,10.9,0000.0,0004.16,0003.25,0003.08
2022-11-14 09:09:00,,0825.4,4.98,0.00,22.7,21.7,00.0,31.4,24.6,10.9,0000.0,0004.33,0003.25,0003.04
2022-11-14 09:10:00,,0825.4,5.01,0.00,22.7,21.6,00.0,31.4,24.6,10.9,0000.0,0004.13,0003.23,0003.02
2022-11-14 09:11:00,,0825.5,5.00,0.00,22.7,21.4,00.0,31.4,24.5,10.9,0000.0,0004.00,0003.20,0003.01
2022-11-14 09:12:00,,0825.4,5.00,0.00,22.6,21.3,00.0,31.4,24.5,10.9,0000.0,0004.00,0003.20,0002.99
2022-11-14 09:13:00,,0825.5,4.99,0.00,22.6,21.2,00.0,31.4,24.5,10.9,0000.0,0004.04,0003.20,0002.97
2022-11-14 09:14:00,,0825.5,4.99,0.00,22.6,21.2,00.0,31.4,24.4,11.0,0000.0,0004.08,0003.20,0002.96
2022-11-14 09:15:00,,0825.5,5.00,0.00,22.6,21.1,00.0,31.4,24.4,11.0,0000.0,0003.96,0003.18,0002.93
2022-11-14 09:16:00,,0825.6,5.01,0.00,22.6,21.1,00.0,31.4,24.4,11.0,0000.0,0003.82,0003.14,0002.92
2022-11-14 09:17:00,,0825.5,4.98,0.00,22.5,21.0,00.0,31.4,24.4,11.0,0000.0,0003.80,0003.14,0002.91
2022-11-14 09:18:00,,0825.6,5.00,0.00,22.5,21.0,00.0,31.4,24.3,11.0,0000.0,0003.80,0003.14,0002.91
2022-11-14 09:19:00,,0825.6,5.02,0.00,22.5,20.9,00.0,31.4,24.3,11.0,0000.0,0003.85,0003.14,0002.89
2022-11-14 09:20:00,,0825.6,4.98,0.00,22.5,20.9,00.0,31.4,24.3,11.1,0000.0,0003.68,0003.13,0002.89
2022-11-14 09:21:00,,0825.5,5.01,0.00,22.4,20.9,00.0,31.4,24.2,11.1,0000.0,0003.62,0003.12,0002.88
2022-11-14 09:22:00,,0825.5,5.00,0.00,22.4,20.9,00.0,31.4,24.2,11.1,0000.0,0003.68,0003.12,0002.87
2022-11-14 09:23:00,,0825.5,4.99,0.00,22.4,20.9,00.0,31.3,24.2,11.1,0000.0,0003.75,0003.14,0002.85
2022-11-14 09:24:00,,0825.5,5.00,0.00,22.5,21.5,00.0,31.3,24.4,11.1,0000.0,0003.71,0003.13,0002.85
2022-11-14 09:25:00,,0825.5,5.01,0.00,22.5,22.2,00.0,31.3,24.6,11.0,0000.0,0003.61,0003.08,0002.83
2022-11-14 09:26:00,,0825.5,4.99,0.00,22.6,22.2,00.0,31.3,24.6,11.0,0000.0,0003.58,0003.05,0002.81
2022-11-14 09:27:00,,0825.5,5.01,0.00,22.6,21.9,00.0,31.3,24.6,11.0,0000.0,0003.57,0003.04,0002.80
2022-11-14 09:28:00,,0825.5,5.00,0.00,22.6,21.7,00.0,31.3,24.5,11.0,0000.0,0003.70,0003.05,0002.78
2022-11-14 09:29:00,,0825.4,4.99,0.00,22.6,21.5,00.0,31.4,24.5,10.9,0000.0,0003.77,0003.02,0002.74
2022-11-14 09:30:00,,0825.4,5.01,0.00,22.6,21.4,00.0,31.4,24.4,10.9,0000.0,0003.66,0002.97,0002.71
2022-11-14 09:31:00,,0825.4,5.00,0.00,22.6,21.3,00.0,31.4,24.4,10.9,0000.0,0003.56,0002.93,0002.69
2022-11-14 09:32:00,,0825.4,4.98,0.00,22.6,21.2,00.0,31.4,24.4,10.9,0000.0,0003.50,0002.89,0002.66
2022-11-14 09:33:00,,0825.4,5.01,0.00,22.5,21.2,00.0,31.4,24.4,10.9,0000.0,0003.47,0002.87,0002.65
2022-11-14 09:34:00,,0825.5,5.00,0.00,22.5,21.1,00.0,31.4,24.3,10.9,0000.0,0003.31,0002.79,0002.64
2022-11-14 09:35:00,,0825.5,5.01,0.00,22.5,21.0,00.0,31.4,24.3,10.9,0000.0,0003.32,0002.78,0002.62
2022-11-14 09:36:00,,0825.5,4.99,0.00,22.5,21.0,00.0,31.4,24.3,10.9,0000.0,0003.36,0002.78,0002.62
2022-11-14 09:37:00,,0825.5,5.00,0.00,22.4,20.9,00.0,31.3,24.2,10.9,0000.0,0003.59,0002.79,0002.59
2022-11-14 09:38:00,,0825.4,5.00,0.00,22.4,20.9,00.0,31.3,24.2,10.9,0000.0,0003.65,0002.79,0002.58
2022-11-14 09:39:00,,0825.4,5.02,0.00,22.4,20.8,00.0,31.3,24.2,11.0,0000.0,0003.53,0002.78,0002.59
2022-11-14 09:40:00,,0825.4,4.98,0.00,22.4,20.8,00.0,31.3,24.2,11.0,0000.0,0003.50,0002.81,0002.62
2022-11-14 09:41:00,,0825.4,5.01,0.00,22.4,21.0,00.0,31.3,24.2,11.0,0000.0,0003.52,0002.84,0002.65
2022-11-14 09:42:00,,0825.4,5.01,0.00,22.5,21.8,00.0,31.2,24.4,11.0,0000.0,0003.59,0002.89,0002.69
2022-11-14 09:43:00,,0825.5,4.99,0.00,22.5,22.4,00.0,31.3,24.6,11.0,0000.0,0003.68,0002.96,0002.74
2022-11-14 09:44:00,,0825.4,5.01,0.00,22.6,22.1,00.0,31.3,24.6,11.1,0000.0,0003.76,0003.03,0002.80
2022-11-14 09:45:00,,0825.4,4.99,0.00,22.6,21.8,00.0,31.3,24.5,11.1,0000.0,0003.84,0003.10,0002.84
2022-11-14 09:46:00,,0825.4,5.00,0.00,22.6,21.6,00.0,31.3,24.4,11.2,0000.0,0004.16,0003.16,0002.92
2022-11-14 09:47:00,,0825.4,5.00,0.00,22.5,21.3,00.0,31.3,24.4,11.2,0000.0,0004.49,0003.23,0002.99
2022-11-14 09:48:00,,0825.4,5.02,0.00,22.5,21.2,00.0,31.3,24.3,11.2,0000.0,0004.50,0003.28,0003.07
2022-11-14 09:49:00,,0825.4,4.99,0.00,22.5,21.1,00.0,31.3,24.3,11.2,0000.0,0004.71,0003.35,0003.12
2022-11-14 09:50:00,,0825.4,5.00,0.00,22.5,21.0,00.0,31.3,24.3,11.2,0000.0,0005.01,0003.42,0003.15
2022-11-14 09:51:00,,0825.4,5.00,0.00,22.4,21.0,00.0,31.3,24.2,11.3,0000.0,0005.14,0003.46,0003.17
2022-11-14 09:52:00,,0825.4,5.00,0.00,22.4,20.9,00.0,31.3,24.2,11.3,0000.0,0005.55,0003.52,0003.20
2022-11-14 09:53:00,,0825.4,5.00,0.00,22.4,20.9,00.0,31.3,24.2,11.3,0000.0,0005.71,0003.56,0003.21
2022-11-14 09:54:00,,0825.3,5.00,0.00,22.4,20.9,00.0,31.3,24.2,11.3,0000.0,0005.81,0003.58,0003.22
2022-11-14 09:55:00,,0825.3,5.00,0.00,22.4,20.8,00.0,31.3,24.2,11.3,0000.0,0006.03,0003.62,0003.23
2022-11-14 09:56:00,,0825.3,5.00,0.00,22.4,20.8,00.0,31.3,24.2,11.3,0000.0,0006.54,0003.64,0003.24
2022-11-14 09:57:00,,0825.4,5.00,0.00,22.3,20.8,00.0,31.3,24.1,11.3,0000.0,0007.84,0003.65,0003.24
2022-11-14 09:58:00,,0825.3,5.01,0.00,22.3,20.9,00.0,31.2,24.2,11.3,0000.0,0007.83,0003.62,0003.23
2022-11-14 09:59:00,,0825.4,4.98,0.00,22.4,21.7,00.0,31.2,24.4,11.2,0000.0,0007.74,0003.61,0003.22
